^^
Meteo Knjazevac Station Historical Data
Daily Summary for January 30, 2021 Units:  English    Metric   Both
Daily Weekly Monthly Yearly Custom
  High: Low: Average:
Temperature: 42.4 °F 37.8 °F 39.8 °F
Dew Point: 41.4 °F 37.6 °F 39.4 °F
Humidity: 99% 95% 98%
Wind Speed: 2mph 0mph 0.9mph
Wind Gust: 8mph - -
Wind- - South
Pressure: 29.67 in 29.63 in -
Precipitation: 0.33 in    
Historical Graphs
 
 
Tabular Data for January 30, 2021
Time Temperature Dew Point Pressure Wind Wind Speed Wind Gust Humidity Rainfall Rate (Hourly) solar Conditions
00:00 42.4 °F 41.4 °F 29.65 in Calm   3 mph 96% 0.01 in 0 W/m2
00:10 42.3 °F 41.2 °F 29.65 in SSE 1 mph 3 mph 96% 0.01 in 0 W/m2
00:20 42.3 °F 40.9 °F 29.65 in SE 1 mph 3 mph 95% 0.00 in 0 W/m2
00:30 42.1 °F 41 °F 29.65 in SSW 1 mph 3 mph 96% 0.00 in 0 W/m2
00:40 41.9 °F 40.8 °F 29.64 in Calm   2 mph 96% 0.00 in 0 W/m2
00:50 41.9 °F 40.8 °F 29.64 in Calm   1 mph 96% 0.00 in 0 W/m2
01:00 41.7 °F 40.7 °F 29.64 in Calm   2 mph 96% 0.00 in 0 W/m2
01:10 41.5 °F 41 °F 29.64 in Calm   2 mph 98% 0.01 in 0 W/m2
01:20 41.4 °F 40.8 °F 29.63 in Calm   3 mph 98% 0.01 in 0 W/m2
01:30 41.4 °F 40.8 °F 29.64 in WNW 1 mph 4 mph 98% 0.02 in 0 W/m2
01:40 41.2 °F 40.7 °F 29.63 in Calm   3 mph 98% 0.03 in 0 W/m2
01:50 41.2 °F 40.9 °F 29.63 in SSW 1 mph 2 mph 99% 0.02 in 0 W/m2
02:00 41 °F 40.7 °F 29.63 in SW 2 mph 3 mph 99% 0.01 in 0 W/m2
02:10 40.8 °F 40.6 °F 29.63 in WSW 2 mph 6 mph 99% 0.01 in 0 W/m2
02:20 40.6 °F 40.4 °F 29.63 in West 2 mph 6 mph 99% 0.01 in 0 W/m2
02:30 40.5 °F 40.2 °F 29.63 in West 2 mph 6 mph 99% 0.01 in 0 W/m2
02:40 40.3 °F 40 °F 29.64 in West 2 mph 7 mph 99% 0.01 in 0 W/m2
02:50 40.3 °F 40 °F 29.64 in Calm   5 mph 99% 0.01 in 0 W/m2
03:00 40.1 °F 39.8 °F 29.64 in SSW 1 mph 2 mph 99% 0.02 in 0 W/m2
03:10 40.1 °F 39.8 °F 29.64 in SSW 2 mph 5 mph 99% 0.02 in 0 W/m2
03:20 40.1 °F 39.8 °F 29.64 in SSW 1 mph 5 mph 99% 0.02 in 0 W/m2
03:30 39.7 °F 39.5 °F 29.64 in SSW 2 mph 8 mph 99% 0.02 in 0 W/m2
03:40 39.6 °F 39.3 °F 29.64 in SSW 1 mph 6 mph 99% 0.01 in 0 W/m2
03:50 39.4 °F 39.1 °F 29.64 in SSW 1 mph 3 mph 99% 0.01 in 0 W/m2
04:00 39.2 °F 38.7 °F 29.64 in South 1 mph 4 mph 98% 0.00 in 0 W/m2
04:10 39 °F 38.8 °F 29.64 in South 1 mph 3 mph 99% 0.00 in 0 W/m2
04:20 38.8 °F 38.6 °F 29.64 in South 1 mph 4 mph 99% 0.01 in 0 W/m2
04:30 38.7 °F 38.4 °F 29.64 in SSW 1 mph 4 mph 99% 0.01 in 0 W/m2
04:40 38.5 °F 38.2 °F 29.64 in Calm   3 mph 99% 0.01 in 0 W/m2
04:50 38.5 °F 38.2 °F 29.64 in Calm   3 mph 99% 0.01 in 0 W/m2
05:00 38.3 °F 38 °F 29.64 in SSE 2 mph 4 mph 99% 0.01 in 0 W/m2
05:10 38.1 °F 37.9 °F 29.64 in SE 1 mph 5 mph 99% 0.01 in 0 W/m2
05:20 38.1 °F 37.9 °F 29.64 in Calm   2 mph 99% 0.00 in 0 W/m2
05:30 38.1 °F 37.9 °F 29.64 in SSE 1 mph 4 mph 99% 0.00 in 0 W/m2
05:40 37.9 °F 37.7 °F 29.65 in SE 1 mph 2 mph 99% 0.00 in 0 W/m2
05:50 37.9 °F 37.7 °F 29.65 in Calm   3 mph 99% 0.00 in 0 W/m2
06:00 37.9 °F 37.7 °F 29.65 in Calm   2 mph 99% 0.00 in 0 W/m2
06:10 37.9 °F 37.7 °F 29.65 in Calm   3 mph 99% 0.00 in 0 W/m2
06:20 37.9 °F 37.7 °F 29.66 in SSE 1 mph 5 mph 99% 0.00 in 0 W/m2
06:30 37.8 °F 37.6 °F 29.66 in SSE 2 mph 6 mph 99% 0.00 in 0 W/m2
06:40 37.9 °F 37.7 °F 29.66 in SE 2 mph 5 mph 99% 0.00 in 0 W/m2
06:50 37.9 °F 37.7 °F 29.67 in East 2 mph 5 mph 99% 0.00 in 0 W/m2
Knjazevac, Serbia
Compliments of Weather Underground - 2 mb